Lapse_Rate
7.4 6.5 6.5 6.6 6.5 6.5 6.5 6.5 6.5 6.5 6.5 6.5 6.5 6.5 6.5 7.1 7.4 7.3 7.5 7.9 8.0 8.2 8.9 9.2 9.3 9.6 9.5 9.6 9.5 9.3 9.4 9.3 9.4 9.5 9.6 9.7 9.6 9.7 9.9 9.8 9.4 8.1 9.4 8.4
6.5 6.5 6.5 6.5 6.5 6.5 6.5 6.5 6.5 6.6 6.5 6.5 6.5 6.5 6.5 6.7 7.0 7.4 7.5 7.8 8.1 8.3 8.7 8.9 9.1 9.4 9.4 9.3 9.3 9.2 9.0 9.1 8.0 9.7 9.6 9.7 9.6 9.8 10.0 9.8 9.5 9.1 9.1 8.3
6.5 6.5 6.6 6.5 6.5 6.5 6.5 6.5 6.5 6.5 6.5 6.5 6.5 6.5 6.5 6.5 7.2 7.5 7.8 8.0 8.1 8.3 8.4 8.6 8.9 9.1 9.3 9.2 9.2 8.9 7.3 8.4 7.9 9.5 9.6 8.3 9.5 9.2 9.6 9.7 9.8 9.3 8.8 9.2
6.5 6.7 6.5 6.5 6.5 6.5 6.5 6.5 6.5 6.5 6.5 6.5 6.5 6.5 6.5 6.5 6.5 6.6 7.4 7.9 8.1 7.9 8.4 8.3 9.0 9.0 9.2 9.2 9.4 9.2 6.8 7.0 7.6 7.4 9.4 9.1 9.3 9.2 9.6 9.7 9.8 9.9 8.6 9.5
6.5 6.5 6.5 6.5 6.5 6.5 6.5 6.5 6.5 6.5 6.5 6.5 6.5 6.5 6.5 6.5 6.5 6.5 7.0 7.7 8.1 8.3 8.6 8.6 8.8 9.0 9.3 9.3 9.3 9.3 6.7 6.4 8.3 7.4 8.5 9.2 8.3 9.5 9.7 9.7 9.4 8.7 9.2 8.6
6.5 7.2 6.6 6.5 6.5 6.5 6.5 6.5 6.5 6.5 6.5 6.5 6.5 6.5 6.5 6.5 6.5 6.5 6.9 7.5 7.9 8.3 8.5 8.6 8.8 9.0 9.1 9.4 9.5 9.3 7.0 5.9 6.6 7.0 7.0 7.5 9.0 9.0 9.4 9.4 9.5 9.7 9.8 9.8
6.5 6.5 6.5 6.8 6.5 6.5 6.5 6.5 6.5 6.5 6.5 6.5 6.5 6.4 6.5 6.5 6.5 6.5 6.7 7.2 7.9 8.2 8.5 8.6 8.6 8.2 8.9 9.0 9.1 9.2 7.5 5.8 6.2 6.9 7.2 7.1 7.5 8.6 9.0 8.1 9.5 9.3 9.7 9.7
6.5 6.5 6.5 6.5 6.5 6.5 6.5 6.5 6.5 6.5 6.5 6.5 6.5 6.5 6.5 6.5 7.0 7.3 7.5 7.7 7.9 8.2 8.7 8.7 8.7 8.7 8.0 8.9 9.0 9.1 8.9 6.5 6.3 6.6 6.7 6.9 7.3 9.5 9.5 9.5 9.6 9.6 9.7 9.7
6.5 6.5 6.5 6.5 6.5 6.5 6.5 6.5 6.5 6.5 6.5 6.5 6.5 6.5 6.5 6.5 6.5 6.9 7.1 7.4 7.6 8.0 8.3 8.5 8.8 8.8 8.6 8.8 8.8 8.9 8.9 8.3 7.3 7.0 6.9 6.6 6.9 7.4 9.4 9.4 9.5 9.8 9.6 9.8
6.5 6.5 6.5 6.5 6.7 6.7 6.5 6.5 6.5 6.5 6.5 6.5 6.5 6.5 6.5 6.5 6.5 6.5 6.6 7.1 7.6 7.9 8.2 8.4 8.7 8.9 9.0 9.0 9.1 9.1 9.1 8.1 8.6 8.9 8.1 7.4 7.2 7.0 7.5 9.0 9.2 9.4 9.6 9.6
6.5 6.5 6.5 6.6 6.5 6.5 6.5 6.5 6.5 6.5 6.5 6.5 6.5 6.5 6.5 6.5 6.5 6.5 6.7 7.3 7.6 7.8 8.1 8.3 8.6 8.8 9.0 9.1 9.1 9.0 9.2 9.1 9.2 9.2 9.2 8.8 9.2 8.2 7.0 7.5 7.9 8.2 9.2 9.4
6.5 6.5 6.5 6.5 6.5 6.5 6.6 6.5 6.5 6.5 6.5 6.5 6.5 6.5 6.5 6.5 6.4 7.0 7.1 7.4 7.8 8.0 8.1 8.4 8.6 8.7 8.8 8.9 9.1 9.2 9.1 9.2 9.1 9.3 9.2 8.8 8.5 9.3 9.3 7.3 7.1 7.3 7.7 9.2
6.5 6.5 6.5 6.5 6.5 6.5 6.5 6.5 6.5 6.5 6.5 6.5 6.5 6.5 6.5 6.6 6.6 7.2 7.2 7.4 7.7 7.9 8.1 8.4 8.5 8.5 8.7 8.8 8.9 9.1 9.2 9.1 9.4 9.2 9.1 8.7 8.9 9.3 9.3 9.3 8.1 7.8 7.1 7.5
6.7 6.5 6.5 6.5 6.5 6.5 6.5 6.5 6.5 6.5 6.5 6.5 6.5 6.5 6.5 6.5 6.5 6.8 7.3 7.6 7.8 7.9 8.1 8.2 8.4 8.4 8.6 8.7 8.8 8.9 9.0 9.2 9.2 9.3 9.1 8.3 6.0 8.8 9.5 9.4 9.3 9.3 7.9 8.1
6.5 6.5 6.5 6.5 6.5 6.5 6.5 6.5 6.5 6.5 6.5 6.5 6.5 6.5 6.5 6.5 6.5 7.0 7.5 7.6 7.7 7.8 8.0 8.2 8.3 8.3 8.4 8.4 8.6 8.8 9.0 9.0 9.2 8.6 9.0 9.0 7.8 8.9 9.1 9.1 9.2 9.2 9.2 9.3
6.5 6.5 6.5 6.5 6.5 6.5 6.5 6.5 6.5 6.6 6.4 6.4 6.5 6.5 6.5 6.9 7.2 7.1 7.4 7.6 7.6 7.8 8.0 8.2 8.3 8.2 6.4 5.4 5.1 7.8 8.4 8.8 8.4 8.4 7.8 8.9 8.7 8.0 8.9 8.8 8.8 8.8 8.9 9.0
6.5 6.5 6.5 6.5 6.5 6.5 6.5 6.5 6.5 6.5 6.5 6.5 6.5 6.5 6.5 6.5 6.7 7.1 7.4 7.5 7.6 7.9 8.1 8.2 8.3 8.3 8.3 4.7 4.9 5.8 6.0 6.4 6.5 6.3 6.9 7.9 8.5 8.6 8.2 8.2 8.3 8.5 8.4 8.8
6.5 6.5 6.5 6.5 6.5 6.5 6.5 6.5 6.5 6.5 6.4 6.5 6.5 6.5 6.6 6.8 7.3 7.7 7.9 7.7 7.8 8.0 8.1 8.3 8.5 8.5 7.9 6.8 7.3 5.2 7.3 6.4 5.9 6.6 6.3 7.1 8.0 6.6 6.8 7.4 7.7 7.6 7.9 8.3
6.5 6.5 6.5 6.5 6.5 6.5 6.5 6.5 6.5 6.5 6.5 6.5 6.5 6.5 6.9 7.3 7.4 7.3 8.0 8.2 8.2 8.2 8.5 8.6 8.8 8.7 7.6 8.1 4.5 4.5 5.6 7.6 6.6 7.3 5.8 5.6 5.5 5.3 5.6 5.9 8.3 8.7 8.3 7.4
6.5 6.5 6.6 6.5 6.5 6.5 6.5 6.5 7.0 6.5 6.5 6.5 6.8 6.5 6.7 7.2 6.5 6.5 8.1 8.3 8.4 8.5 8.7 8.6 8.9 8.9 8.8 6.0 5.8 5.4 7.0 6.9 8.4 6.6 5.5 4.8 3.9 3.3 3.1 4.3 5.2 6.8 8.9 7.9
6.5 6.5 6.5 6.5 6.5 6.5 6.5 6.7 7.3 6.5 6.5 7.0 7.3 7.2 7.1 6.5 7.0 7.9 8.2 8.3 8.6 8.6 8.8 8.9 8.9 8.6 5.8 5.7 5.6 6.0 6.8 8.4 5.9 5.5 5.3 4.2 3.2 2.7 2.6 1.8 3.0 5.1 8.0 7.9
6.5 6.5 6.5 6.5 6.5 6.5 7.0 6.7 6.5 6.6 7.3 7.3 7.4 7.4 7.3 7.5 7.8 7.9 8.2 8.2 8.4 8.5 8.7 8.9 8.8 8.6 6.7 6.0 7.3 7.0 8.2 7.1 7.1 6.6 5.6 3.4 2.1 2.5 2.3 2.3 4.6 5.1 7.0 6.6
6.5 6.5 6.5 6.5 6.5 6.6 7.3 7.0 7.7 7.7 7.4 7.5 7.6 7.8 7.8 7.8 7.8 8.1 8.1 8.3 8.5 8.6 8.6 8.9 8.7 8.2 7.6 6.8 7.1 7.3 8.6 7.8 7.8 6.7 5.1 3.0 2.1 2.4 1.9 1.3 2.6 4.9 5.9 4.5
6.5 6.7 6.5 6.5 6.5 6.5 7.2 7.6 7.9 8.0 7.8 8.0 8.1 8.1 8.2 7.9 8.0 8.1 8.3 8.3 8.4 8.4 8.5 8.9 8.7 8.1 7.4 6.8 7.2 7.4 8.5 7.6 7.9 6.0 5.8 3.7 2.9 2.0 1.6 -0.1 1.2 1.0 2.6 3.4
6.6 6.6 6.5 6.5 6.5 6.9 7.3 7.6 8.0 8.0 8.2 8.1 8.2 8.2 8.1 8.2 8.1 8.3 8.4 8.4 8.6 8.4 7.4 7.3 7.3 7.3 7.1 7.3 6.5 8.6 7.1 8.4 8.8 6.6 8.5 5.2 2.8 3.7 2.1 0.4 -0.3 1.1 0.1 1.8
6.8 6.5 6.5 6.5 6.8 6.7 6.9 7.8 8.1 7.9 7.9 8.1 8.0 8.0 8.4 8.4 8.3 8.5 8.5 8.6 8.6 7.4 6.9 7.1 6.8 6.3 5.8 5.9 6.0 7.9 7.5 8.9 8.6 6.7 8.4 6.9 4.1 3.1 3.1 2.5 2.4 -0.1 -0.7 -1.4
Wind_Speed
13 11 15 14 14 8 5 4 4 6 4 6 9 9 7 10 13 14 14 15 14 15 15 14 13 12 13 12 13 13 12 11 9 7 7 7 7 6 6 6 6 5 6 7
9 16 16 3 4 10 10 9 5 2 1 7 3 9 8 12 14 15 17 16 17 16 15 15 15 14 14 14 14 13 13 13 10 8 6 5 6 6 6 7 7 7 7 7
16 5 10 9 13 13 13 13 5 5 2 8 7 13 9 9 13 14 15 15 16 16 16 16 15 15 15 15 15 14 14 14 13 11 7 6 5 4 6 6 7 8 9 9
13 11 7 16 18 15 15 12 9 7 7 6 6 2 8 8 12 14 16 17 18 16 15 11 15 15 16 16 15 14 15 14 13 14 10 10 8 9 8 7 7 7 10 9
10 11 15 15 15 17 16 12 8 9 11 7 12 7 8 7 9 13 16 18 19 18 20 18 16 16 15 15 15 16 15 15 14 14 12 10 11 8 6 6 7 7 7 11
16 4 8 16 11 16 17 10 7 6 7 9 9 7 6 7 2 5 7 15 18 18 19 17 15 14 13 14 14 15 16 16 15 14 14 13 12 11 7 6 7 8 8 8
14 15 13 9 12 8 13 16 10 10 9 9 3 6 10 3 2 5 6 8 13 16 17 17 16 14 15 16 17 16 17 16 17 16 15 15 14 12 11 8 8 7 7 7
11 14 19 12 17 10 19 20 11 10 9 8 9 6 2 2 2 3 4 4 8 13 17 17 17 15 13 18 17 16 16 16 17 17 16 14 14 10 10 11 10 7 9 7
8 13 16 9 12 12 16 16 16 14 2 8 5 7 6 6 6 4 1 1 5 9 14 16 16 16 17 16 16 16 16 15 17 18 15 15 13 14 11 11 10 9 9 8
7 8 14 12 8 7 10 18 10 9 13 11 8 8 5 9 8 5 4 4 6 6 10 12 13 15 14 15 14 15 16 16 16 16 15 14 15 14 14 11 12 11 10 10
15 10 11 9 14 15 9 9 10 10 5 11 12 10 13 7 8 8 7 5 5 6 7 9 11 12 13 12 12 14 14 15 15 14 14 15 15 16 15 14 13 13 12 11
19 11 11 19 5 9 13 19 17 11 14 11 11 4 5 7 11 9 8 4 6 4 6 7 9 10 10 11 11 12 12 12 15 13 13 14 14 14 15 15 16 14 14 13
14 11 10 9 8 7 15 15 11 13 12 8 9 7 8 8 9 9 9 6 5 6 7 7 7 8 7 8 8 9 10 11 11 12 13 13 12 14 16 15 15 15 14 14
5 18 16 11 13 15 17 15 15 13 10 11 13 14 13 11 13 12 9 7 6 7 7 6 5 5 5 5 6 7 7 9 9 11 12 10 11 13 13 13 14 14 14 14
13 16 12 18 9 8 16 16 14 16 15 12 5 14 9 11 15 14 11 9 8 8 8 7 6 5 4 4 4 4 5 6 8 10 12 14 12 13 11 12 13 13 14 13
10 13 15 14 12 13 12 10 13 15 15 10 14 11 6 0 6 10 11 12 10 8 8 8 7 6 5 4 2 2 1 2 3 8 10 11 12 10 12 12 13 13 14 14
7 12 9 15 12 11 13 14 14 15 13 13 14 13 8 8 10 12 11 8 7 8 9 8 7 6 5 4 3 2 1 1 1 3 6 8 9 11 11 12 13 14 15 15
8 8 11 8 9 15 4 2 9 14 14 13 11 4 5 5 6 5 3 6 6 5 7 7 7 6 6 5 4 1 1 1 2 2 4 6 8 10 12 11 14 15 15 16
17 8 8 7 14 7 8 6 8 10 11 11 11 8 9 7 6 6 3 3 4 5 5 6 5 5 5 4 3 2 1 1 3 5 7 7 9 11 13 14 15 16 14 14
13 12 5 10 17 19 9 8 6 6 10 10 13 11 10 8 8 6 8 7 7 6 7 7 7 6 5 5 3 2 1 2 4 7 9 11 12 13 14 15 16 15 16 15
8 8 14 11 12 8 5 11 10 11 3 7 14 11 8 9 3 9 8 7 5 6 7 6 6 5 5 4 4 2 2 3 5 6 9 10 11 11 13 15 15 16 15 14
10 9 9 12 14 9 13 13 11 3 5 6 5 7 8 6 6 5 5 5 5 6 6 6 5 4 5 5 5 4 2 2 2 6 8 10 10 8 9 12 10 13 14 14
9 6 8 9 8 4 17 7 13 4 9 7 8 8 8 7 6 5 5 5 5 4 4 4 5 4 5 4 4 5 4 1 5 7 9 11 11 10 9 8 8 9 11 6
5 4 6 4 7 8 15 3 8 7 7 8 6 8 7 6 5 5 4 3 4 3 2 3 3 4 5 5 6 3 4 3 4 7 9 9 11 11 12 8 7 7 5 3
4 11 15 7 2 6 13 9 11 9 8 8 7 7 6 6 6 6 6 6 4 4 3 3 4 5 6 6 5 6 4 3 6 3 7 11 9 9 9 13 10 8 10 9
7 9 8 9 3 1 10 14 12 12 10 10 10 8 6 7 9 9 8 7 6 5 5 5 6 6 6 6 6 8 6 5 7 5 6 9 7 6 6 9 13 27 26 27
Wind_Direction
201 215 217 211 224 296 298 254 253 103 131 241 244 254 229 196 201 190 211 200 211 204 191 188 191 188 182 186 186 191 192 176 183 184 190 190 195 188 196 200 151 180 168 175
179 225 224 259 234 240 245 237 205 125 69 244 251 249 232 202 210 208 205 209 211 201 190 193 192 199 195 189 190 188 195 187 192 186 200 207 207 201 205 197 176 210 190 199
228 185 238 208 218 231 235 249 194 300 164 238 270 238 214 217 210 209 212 219 220 209 202 194 199 203 200 196 194 190 192 191 195 199 193 196 209 237 213 211 197 202 210 213
236 225 202 221 232 226 241 220 262 265 266 302 221 273 180 196 207 214 218 212 225 217 229 193 201 205 200 199 196 191 189 192 195 193 198 208 212 216 217 218 209 195 211 213
213 217 218 228 232 226 246 263 259 248 265 293 196 257 117 158 211 216 219 226 218 216 214 204 213 199 201 195 195 192 187 190 199 194 212 196 218 212 219 221 204 227 200 219
260 171 237 220 220 229 232 223 224 246 263 239 214 240 157 142 149 181 213 216 224 214 213 208 208 198 197 192 195 189 186 193 198 195 203 210 210 233 237 217 207 215 212 204
210 221 224 232 221 211 207 213 212 217 200 242 91 224 266 142 209 261 272 230 217 217 203 207 188 204 200 191 194 192 188 194 197 198 199 207 216 220 233 238 225 250 211 217
211 203 216 195 230 190 209 219 225 206 219 210 145 238 192 175 285 282 279 247 224 205 201 202 197 191 201 196 194 198 192 196 196 200 203 203 213 222 225 230 243 215 249 224
211 237 178 205 206 231 192 232 247 281 211 286 205 209 223 202 222 210 141 28 171 191 198 194 199 190 199 202 203 199 203 203 202 202 201 204 207 223 227 238 221 232 242 255
233 256 202 179 192 207 257 214 208 232 261 236 230 223 277 174 185 173 169 146 121 156 185 195 197 202 195 206 204 200 205 206 209 210 205 203 207 210 219 225 231 244 251 235
230 235 171 173 210 195 191 203 233 275 265 261 249 228 215 186 178 172 136 115 112 142 172 194 200 205 202 204 211 213 208 218 205 206 207 213 213 211 209 214 223 233 241 235
211 220 222 206 172 264 245 215 209 225 210 238 282 307 95 219 168 170 140 128 104 119 155 175 189 200 210 209 217 225 216 209 222 212 214 213 218 223 220 217 214 218 227 234
188 228 219 213 189 208 226 228 238 233 258 230 240 209 131 168 179 184 164 146 125 115 135 150 161 170 191 201 216 220 221 217 211 217 214 220 221 223 231 226 226 219 220 225
272 244 224 226 218 184 205 204 218 230 219 225 219 262 162 183 204 186 175 161 150 126 127 123 134 138 156 177 194 213 222 226 213 222 218 219 214 232 230 236 235 233 225 229
226 239 228 245 275 201 200 194 209 227 251 260 241 219 254 200 207 194 177 160 160 153 144 133 133 128 129 128 153 179 208 218 222 228 232 226 217 223 234 249 238 236 238 233
232 240 243 236 231 229 220 218 211 230 248 247 254 249 263 29 221 188 186 177 171 165 148 140 135 135 122 108 98 91 96 196 233 239 249 253 244 240 241 239 240 235 233 236
275 235 222 221 201 204 223 209 219 227 229 245 244 246 151 190 191 194 190 180 169 172 170 165 155 151 136 136 144 144 144 164 194 273 285 274 263 257 247 239 240 239 237 238
253 240 239 215 183 216 205 133 247 247 248 238 254 259 202 187 155 151 150 174 177 183 165 158 161 150 142 153 106 31 91 62 359 310 307 301 288 281 275 272 253 241 238 236
214 244 236 181 211 213 191 194 203 219 237 219 229 179 157 148 163 118 146 169 171 171 152 153 152 150 158 147 142 138 180 2 336 330 318 307 293 282 278 271 259 255 245 234
203 218 260 216 222 227 246 150 188 200 247 191 216 197 177 185 222 133 134 143 140 142 151 162 158 157 174 159 175 164 127 327 338 340 326 317 304 292 282 276 269 264 251 240
168 198 213 228 224 227 102 147 163 201 100 169 199 215 201 220 23 112 121 120 142 148 159 163 168 167 180 179 184 175 247 14 350 335 324 320 309 294 285 280 258 256 250 241
179 192 209 236 218 209 149 153 194 200 124 142 186 173 186 169 136 129 130 149 160 167 164 195 184 179 173 184 181 186 176 60 11 351 348 338 332 320 306 297 248 242 242 234
201 212 232 230 206 121 171 152 193 224 161 164 168 168 180 180 183 176 184 188 194 225 211 200 192 182 171 190 196 203 116 57 42 22 8 5 359 351 339 333 346 246 237 155
190 53 276 259 186 151 185 167 153 188 166 151 165 170 184 185 178 180 184 176 185 199 219 216 197 182 185 192 209 204 124 85 73 42 29 28 25 18 11 1 14 26 29 119
114 145 229 227 152 132 193 187 175 157 150 141 141 156 171 174 171 158 146 159 158 162 176 190 183 175 186 175 196 157 129 112 98 46 62 60 40 34 45 47 26 41 43 67
195 210 214 230 72 336 202 193 171 165 161 164 153 154 162 165 148 141 132 132 139 148 159 174 170 156 159 171 172 158 166 139 101 82 45 68 55 42 54 64 60 50 59 57